[[{"header":{"parameterUnit":"m.s-1","parameterCategory":1,"la1":30.2991,"la2":30.254,"lo1":-89.0895,"lo2":-89.0444,"dy":0.0017,"dx":0.0017,"nx":28,"ny":28,"refTime":"2024-07-15T03:00:00:Z","depth":0,"parameterNumber":2,"parameterNumberName":"U-component_of_WINDS"},"data":[0,0,0,0,0,0,0,0,0,0,0,0,0,0,0,0,0,0,0,0,0,0,0,0,0,0,0,0,0,0,0,0,0,0,0,0,0,0,0,0,0,0,0,0,0,0,0,0,0,0,0,0,0,0,0,0,0,0,0.9633,0.9633,0,0.9676,0.9677,0.9677,0.9662,0.9661,0.966,0.9659,0.9708,0.971,0.9712,0,0,0,0,0,0,0,0,0,0,0,0,0,0.9542,0.9544,0.9633,0.9633,0.9634,0.9676,0.9677,0.9677,0.9662,0.9661,0.966,0.9659,0.9707,0.9709,0.9712,0,0,0,0,0,0,0,0,0,0,0,0,0,0.9583,0.9544,0.9633,0.9631,0.9632,0.9676,0.9677,0.9678,0.9662,0.9661,0.966,0.9658,0.9706,0.9709,0.9712,0.9762,0,0,0.9722,0.9724,0,0,0,0,0,0,0,0,0.9581,0.9586,0.9631,0.9632,0.9632,0.9662,0.9662,0.9706,0.9663,0.9651,0.9659,0.9657,0.9694,0.9698,0.971,0.9764,0.9766,0.9723,0.9725,0.9726,0.9727,0,0,0,0,0,0,0,0.9578,0.9584,0.965,0.9632,0.9632,0.963,0.9634,0.9671,0.968,0.9652,0.9651,0.9656,0.9694,0.9706,0.9711,0.9767,0.9723,0.9726,0.9728,0.9729,0.9867,0.9869,0,0,0,0,0,0,0.9574,0.9582,0.9649,0.9651,0.9602,0.9633,0.9638,0.9654,0.968,0.9682,0.9657,0.9655,0.9702,0.9707,0.9712,0.9774,0.9726,0.9729,0.9731,0.9866,0.9868,0.987,0,0,0,0,0,0,0.9572,0.958,0.9647,0.9617,0.9625,0.9636,0.9655,0.9656,0.9668,0.9684,0.9686,0.9668,0.9701,0.9708,0.975,0.9775,0.9731,0.9734,0.9864,0.9866,0.9869,0.9896,0,0,0,0,0,0,0.957,0.958,0.9597,0.9617,0.9627,0.9683,0.9656,0.9658,0.9673,0.9671,0.9694,0.9697,0.97,0.9745,0.9753,0.9779,0.9736,0.9862,0.9865,0.9868,0.9893,0.9899,0.9904,0,0,0,0,0,0.9566,0.9604,0.9598,0.9606,0.9649,0.9684,0.969,0.9691,0.9675,0.9694,0.9705,0.9696,0.9771,0.975,0.9759,0.9785,0.986,0.9864,0.9868,0.989,0.9897,0.9904,0,0,0,0,0,0,0.9587,0.9606,0.96,0.9644,0.9663,0.9681,0.9705,0.9699,0.9723,0.972,0.9723,0.9728,0.9772,0.9783,0.9759,0.9836,0.9813,0.9819,0.9827,0.9834,0.984,0.9837,0.9739,0,0,0,0,0,0.9597,0.9623,0.9638,0.9676,0.9685,0.9694,0.9709,0.9709,0.9728,0.9736,0.975,0.977,0.9798,0.9817,0.9844,0.9894,0.99,0.9917,0.9923,0.9927,0.9933,0.9962,0.9971,0.9882,0.9882,0.9882,0,0,0.9617,0.9631,0.9647,0.968,0.9694,0.9723,0.97,0.9731,0.9752,0.9741,0.9782,0.9793,0.9816,0.9863,0.9885,0.9874,0.9959,0.9932,0.9936,0.9939,0.9967,0.9975,0.9983,0.9885,0.9884,0.9884,0,0,0.9669,0.9681,0.9714,0.9729,0.975,0.9756,0.9764,0.9784,0.9791,0.9831,0.9824,0.9851,0.9899,0.9916,0.9931,0.9992,0.9986,1.0,1.0031,1.0059,1.0066,1.0073,1.0096,1.0104,1.0006,1.0006,1.0006,0,0.9692,0.9733,0.9733,0.9764,0.978,0.977,0.9806,0.982,0.985,0.9862,0.9849,0.991,0.9925,0.9977,0.9992,1.0004,1.0015,0.9998,1.0065,1.0071,1.0077,1.0099,1.0108,1.0007,1.0007,1.0007,1.0007,0,0.9761,0.9789,0.9814,0.9842,0.9861,0.9894,0.9901,0.992,0.9919,0.9926,0.997,0.9987,1.0018,1.003,1.0029,1.0083,1.0076,1.0064,1.0041,1.0087,1.0108,1.0117,1.001,1.0009,1.0009,1.0008,0,0,0.9826,0.9854,0.9863,0.9877,0.99,0.9924,0.9957,0.9987,1.0004,1.0025,1.0055,1.0097,1.0086,1.0104,1.0105,1.013,1.0179,1.0116,1.0116,1.0128,1.0241,1.025,1.026,1.0175,1.0176,1.0178,1.024,0,0.9881,0.9938,0.994,0.9993,1.0021,1.0014,1.0043,1.0062,1.0071,1.0097,1.0107,1.0137,1.012,1.0131,1.0156,1.0168,1.0202,1.0163,1.0204,1.0206,1.0199,1.027,1.028,1.0338,1.0248,1.0249,1.025,0,0.9951,0.9974,1.003,1.0052,1.0063,1.009,1.0118,1.0142,1.0165,1.0169,1.0189,1.0187,1.0224,1.02,1.0252,1.0226,1.0243,1.0252,1.0254,1.0258,1.0231,1.0278,1.0356,1.0365,1.0262,1.0261,1.0261,0,0.9995,1.004,1.008,1.0091,1.0117,1.0136,1.0148,1.0168,1.0186,1.0212,1.0224,1.0253,1.027,1.0294,1.0301,1.0282,1.0353,1.0329,1.036,1.036,1.0375,1.0374,1.0458,1.0385,1.0385,1.0385,1.0384,0,1.0056,1.0091,1.01,1.0124,1.0164,1.0167,1.0207,1.0218,1.0236,1.0264,1.026,1.0287,1.0294,1.0323,1.0329,1.0372,1.0379,1.0385,1.0387,1.0386,1.0386,1.0398,1.0395,1.0387,1.0386,1.0386,1.0386,0,1.0112,1.0119,1.0162,1.0182,1.0189,1.0217,1.0236,1.0261,1.0269,1.0305,1.0313,1.0327,1.0361,1.037,1.0411,1.0415,1.0466,1.0463,1.0458,1.0459,1.0489,1.0487,1.0584,1.0598,1.0515,1.0516,1.0516,0,1.0151,1.0177,1.0201,1.0219,1.0231,1.026,1.0279,1.0283,1.0303,1.0331,1.0353,1.0386,1.0413,1.0468,1.0482,1.0514,1.0513,1.0545,1.0518,1.0517,1.0515,1.0514,1.0517,1.055,1.0551,1.0552,1.0552,0,1.0219,1.0222,1.0248,1.0276,1.0298,1.032,1.0342,1.0357,1.0365,1.0388,1.0422,1.0443,1.0484,1.0518,1.0551,1.0565,1.0561,1.0561,1.057,1.057,1.0567,1.0571,1.0474,1.0559,1.0558,1.0558,1.0557,1.0557,1.0269,1.0293,1.0313,1.0343,1.036,1.038,1.0405,1.0416,1.0444,1.0478,1.0479,1.0517,1.0541,1.0584,1.06,1.0631,1.0621,1.0634,1.0637,1.0641,1.0644,1.0561,1.0636,1.0636,1.0636,1.0636,1.0636,0,1.0338,1.0351,1.0378,1.0409,1.0433,1.0426,1.045,1.0471,1.0504,1.0525,1.0552,1.0592,1.0625,1.0643,1.0677,1.0698,1.0697,1.0707,1.0706,1.071,1.065,1.0639,1.0707,1.0707,1.0707,1.0707,1.0707,1.0707,1.0377,1.0418,1.0423,1.0473,1.0486,1.0522,1.0537,1.0557,1.0574,1.0619,1.0646,1.0657,1.0678,1.0714,1.0745,1.0749,1.0762,1.0773,1.0777,1.0721,1.0714,1.0707,1.0697,1.0776,1.0776,1.0835,1.0835,1.0835]},{"header":{"parameterUnit":"m.s-1","parameterCategory":1,"la1":30.2991,"la2":30.254,"lo1":-89.0895,"lo2":-89.0444,"dy":0.0017,"dx":0.0017,"nx":28,"ny":28,"refTime":"2024-07-15T03:00:00:Z","depth":0,"parameterNumber":3,"parameterNumberName":"V-component_of_WINDS"},"data":[0,0,0,0,0,0,0,0,0,0,0,0,0,0,0,0,0,0,0,0,0,0,0,0,0,0,0,0,0,0,0,0,0,0,0,0,0,0,0,0,0,0,0,0,0,0,0,0,0,0,0,0,0,0,0,0,0,0,-2.9505,-2.9505,0,-2.9551,-2.9551,-2.9552,-2.9551,-2.955,-2.955,-2.9549,-2.9591,-2.9593,-2.9594,0,0,0,0,0,0,0,0,0,0,0,0,0,-2.9413,-2.9414,-2.9505,-2.9505,-2.9506,-2.9551,-2.9551,-2.9552,-2.9551,-2.955,-2.955,-2.9549,-2.9591,-2.9593,-2.9595,0,0,0,0,0,0,0,0,0,0,0,0,0,-2.9455,-2.9415,-2.9505,-2.9511,-2.9512,-2.9551,-2.9551,-2.9552,-2.9551,-2.955,-2.9549,-2.9549,-2.959,-2.9592,-2.9595,-2.9629,0,0,-2.9603,-2.9604,0,0,0,0,0,0,0,0,-2.9453,-2.9458,-2.9509,-2.9511,-2.9512,-2.9544,-2.9534,-2.9578,-2.9551,-2.9536,-2.9549,-2.9548,-2.9576,-2.958,-2.959,-2.9631,-2.9632,-2.9603,-2.9604,-2.9605,-2.9606,0,0,0,0,0,0,0,-2.945,-2.9456,-2.9523,-2.951,-2.9512,-2.951,-2.9515,-2.9543,-2.956,-2.9537,-2.9537,-2.9543,-2.9576,-2.9588,-2.9591,-2.9633,-2.9603,-2.9605,-2.9607,-2.9608,-2.9706,-2.9707,0,0,0,0,0,0,-2.9446,-2.9454,-2.9521,-2.9524,-2.948,-2.9513,-2.9518,-2.9535,-2.956,-2.9563,-2.9544,-2.9543,-2.9584,-2.9588,-2.9592,-2.9635,-2.9605,-2.9608,-2.9609,-2.9705,-2.9706,-2.9707,0,0,0,0,0,0,-2.9444,-2.9452,-2.9519,-2.9489,-2.9498,-2.9515,-2.9534,-2.9536,-2.9547,-2.9565,-2.9568,-2.9552,-2.9583,-2.9589,-2.9621,-2.9636,-2.9609,-2.9611,-2.9703,-2.9705,-2.9706,-2.9719,0,0,0,0,0,0,-2.9441,-2.9451,-2.9465,-2.949,-2.9499,-2.9548,-2.9535,-2.9538,-2.9552,-2.9552,-2.9574,-2.9577,-2.9583,-2.9617,-2.9623,-2.9639,-2.9613,-2.9702,-2.9704,-2.9706,-2.9717,-2.9721,-2.9724,0,0,0,0,0,-2.9438,-2.9465,-2.9466,-2.9474,-2.9517,-2.9549,-2.9554,-2.9562,-2.9554,-2.9567,-2.9579,-2.9576,-2.9634,-2.962,-2.9627,-2.9644,-2.9701,-2.9703,-2.9706,-2.9716,-2.972,-2.9724,0,0,0,0,0,0,-2.9439,-2.9468,-2.9469,-2.9505,-2.9525,-2.9548,-2.9565,-2.9566,-2.9587,-2.9585,-2.9593,-2.9598,-2.963,-2.964,-2.9624,-2.9679,-2.9666,-2.967,-2.9671,-2.9676,-2.9679,-2.9675,-2.9615,0,0,0,0,0,-2.9444,-2.9468,-2.9492,-2.9521,-2.9532,-2.9547,-2.9561,-2.9566,-2.9586,-2.9594,-2.9608,-2.9626,-2.9648,-2.9663,-2.9684,-2.9719,-2.9724,-2.9735,-2.9738,-2.9741,-2.9744,-2.9764,-2.9769,-2.9715,-2.9715,-2.9715,0,0,-2.9453,-2.9472,-2.9486,-2.9522,-2.9538,-2.9563,-2.9554,-2.9579,-2.9598,-2.9597,-2.9628,-2.9639,-2.966,-2.9694,-2.971,-2.9704,-2.976,-2.9744,-2.9746,-2.9747,-2.9767,-2.9772,-2.9777,-2.9717,-2.9716,-2.9716,0,0,-2.9482,-2.9499,-2.9527,-2.9544,-2.9569,-2.9579,-2.9586,-2.9611,-2.9619,-2.9651,-2.9651,-2.9673,-2.9711,-2.9726,-2.9739,-2.9778,-2.9776,-2.9785,-2.9802,-2.9822,-2.9826,-2.983,-2.9844,-2.9849,-2.9788,-2.9788,-2.9788,0,-2.949,-2.9528,-2.954,-2.9567,-2.9583,-2.9586,-2.9614,-2.9629,-2.9659,-2.9669,-2.9663,-2.9713,-2.9727,-2.9765,-2.9775,-2.9785,-2.9793,-2.9781,-2.9825,-2.9829,-2.9832,-2.9846,-2.9851,-2.9789,-2.9788,-2.9788,-2.9788,0,-2.9537,-2.9564,-2.9582,-2.9615,-2.9633,-2.9659,-2.9674,-2.9691,-2.9696,-2.9707,-2.974,-2.9758,-2.9784,-2.9793,-2.9797,-2.9833,-2.9828,-2.9823,-2.981,-2.9838,-2.9851,-2.9856,-2.979,-2.979,-2.9789,-2.9789,0,0,-2.9565,-2.9606,-2.9613,-2.9628,-2.9658,-2.9678,-2.9706,-2.9734,-2.9748,-2.9769,-2.9792,-2.9826,-2.9823,-2.9837,-2.9842,-2.986,-2.9891,-2.9853,-2.9853,-2.9859,-2.9932,-2.9936,-2.9942,-2.989,-2.9891,-2.9892,-2.9931,0,-2.9598,-2.9649,-2.9661,-2.9704,-2.973,-2.9735,-2.9759,-2.978,-2.9791,-2.9814,-2.9826,-2.985,-2.9843,-2.9853,-2.987,-2.9883,-2.9905,-2.9881,-2.9911,-2.9912,-2.9905,-2.9948,-2.9952,-2.9987,-2.9936,-2.9937,-2.9937,0,-2.9642,-2.9668,-2.9714,-2.9743,-2.9754,-2.9775,-2.9803,-2.9825,-2.9848,-2.9856,-2.9874,-2.9878,-2.9906,-2.9893,-2.9932,-2.9915,-2.9929,-2.9937,-2.9939,-2.9941,-2.9926,-2.9952,-2.9998,-3.0004,-2.9945,-2.9945,-2.9944,0,-2.9659,-2.9704,-2.9739,-2.9752,-2.9786,-2.9801,-2.9816,-2.9839,-2.9855,-2.9879,-2.989,-2.9916,-2.993,-2.995,-2.9961,-2.995,-2.9999,-2.9987,-3.0006,-3.0006,-3.0015,-3.0014,-3.0064,-3.0024,-3.0024,-3.0024,-3.0024,0,-2.9693,-2.9721,-2.9747,-2.9768,-2.98,-2.9815,-2.9845,-2.986,-2.9881,-2.9904,-2.991,-2.9931,-2.9945,-2.9968,-2.9977,-3.0008,-3.0014,-3.0021,-3.0022,-3.002,-3.0019,-3.0028,-3.0026,-3.0025,-3.0025,-3.0025,-3.0025,0,-2.9716,-2.9735,-2.9773,-2.9804,-2.9812,-2.9834,-2.986,-2.988,-2.9894,-2.9923,-2.9931,-2.9951,-2.9979,-2.9993,-3.0026,-3.0032,-3.0068,-3.0068,-3.0061,-3.0061,-3.008,-3.0078,-3.0137,-3.0146,-3.01,-3.0101,-3.0101,0,-2.9737,-2.976,-2.9794,-2.9812,-2.9827,-2.9855,-2.9873,-2.9888,-2.9907,-2.9937,-2.9953,-2.9983,-3.0006,-3.0051,-3.0067,-3.0094,-3.0094,-3.0113,-3.0098,-3.0096,-3.0095,-3.0093,-3.0096,-3.0116,-3.0116,-3.0116,-3.0117,0,-2.9772,-2.9781,-2.9808,-2.9839,-2.9862,-2.9886,-2.991,-2.9923,-2.9943,-2.9963,-2.9993,-3.0012,-3.0049,-3.0077,-3.0105,-3.0119,-3.0121,-3.0122,-3.0128,-3.0125,-3.012,-3.0123,-3.0068,-3.012,-3.012,-3.0119,-3.0119,-3.0119,-2.9795,-2.9816,-2.9844,-2.9875,-2.9895,-2.9919,-2.994,-2.9958,-2.9984,-3.0016,-3.0024,-3.0056,-3.008,-3.0118,-3.0133,-3.0158,-3.0154,-3.0162,-3.0164,-3.0166,-3.0167,-3.0117,-3.0163,-3.0163,-3.0163,-3.0163,-3.0163,0,-2.983,-2.985,-2.9878,-2.9913,-2.9938,-2.9941,-2.9968,-2.9988,-3.0017,-3.004,-3.0065,-3.01,-3.0129,-3.0149,-3.0178,-3.0194,-3.0195,-3.0201,-3.0199,-3.0203,-3.0169,-3.0161,-3.0199,-3.0199,-3.0199,-3.0199,-3.0199,-3.0199,-2.9851,-2.9888,-2.9901,-2.9948,-2.9966,-3.0,-3.0016,-3.0037,-3.0056,-3.0097,-3.0121,-3.0135,-3.0158,-3.0189,-3.0215,-3.022,-3.023,-3.0236,-3.0241,-3.0209,-3.0205,-3.0201,-3.0194,-3.0238,-3.0238,-3.0273,-3.0273,-3.0273]}]]